Theta_e
310 316 319 321 327 328 330 329 328 326 326 323 322 325 323 324 325 326 323 323 322 321 319 319 318 318 315 316 315 314 313 312 313 307 307 301 306 302 300 300 298 299 300
313 316 316 318 324 327 328 327 327 326 324 323 322 321 318 319 319 321 324 323 320 319 318 317 317 316 315 314 314 313 311 312 312 308 305 297 299 300 301 299 298 298 300
313 314 315 314 317 318 320 324 323 322 319 316 313 312 312 310 310 311 313 311 313 319 318 317 317 315 314 313 313 312 311 309 311 311 307 298 295 296 299 299 299 297 298
312 312 311 311 311 311 315 317 318 315 315 314 312 311 310 309 307 304 305 305 305 306 307 308 308 307 308 309 310 312 310 311 309 309 311 306 301 295 292 297 297 297 296
308 308 309 310 310 310 310 312 314 315 313 312 311 309 307 305 301 300 303 303 303 303 304 305 305 304 303 305 306 305 307 310 310 309 307 303 302 302 296 291 293 295 295
304 306 308 309 309 309 309 309 310 311 312 310 308 307 305 303 300 299 298 300 300 300 301 302 303 304 304 304 305 305 307 307 308 309 307 306 300 298 297 294 292 291 293
303 304 304 304 305 305 306 308 309 309 310 308 307 306 304 303 301 300 298 297 298 297 298 299 299 300 303 303 304 304 304 305 307 307 306 305 303 302 300 297 293 291 293
303 303 304 303 304 305 305 306 308 309 309 308 307 305 305 304 303 301 301 301 300 300 298 298 298 298 299 299 300 301 302 303 303 305 307 305 304 302 300 297 294 290 291
303 303 303 302 299 298 300 303 306 307 307 308 307 305 304 304 303 302 302 301 299 299 297 297 297 296 296 296 297 298 301 300 300 301 304 306 304 302 301 300 298 293 287
298 297 297 297 297 298 299 300 301 301 302 305 307 308 306 305 304 302 301 300 299 298 296 295 295 296 298 299 299 298 298 298 298 299 300 302 303 302 301 300 299 296 292
295 295 296 297 298 298 297 298 299 301 302 303 305 305 306 304 304 304 302 299 298 298 296 297 298 297 298 298 297 296 296 296 297 298 299 299 302 302 300 300 298 296 295
295 295 296 296 296 296 296 297 299 301 302 303 304 305 305 304 304 303 301 299 298 299 297 299 298 298 297 296 296 295 296 295 295 296 297 297 300 299 300 299 297 296 294
294 295 295 297 298 298 299 299 300 301 302 302 302 301 303 303 303 302 301 299 300 299 299 298 298 297 296 295 295 295 295 294 295 294 296 296 296 295 296 298 298 296 295
295 294 296 297 298 299 299 300 300 300 301 302 301 300 300 303 302 302 300 299 301 299 298 298 297 297 296 295 294 294 293 293 293 294 295 296 296 294 294 295 296 297 293
295 296 296 296 296 297 298 299 300 300 300 300 299 299 300 301 303 301 302 301 299 300 299 298 297 296 296 295 294 294 292 292 292 293 294 294 295 296 294 296 294 294 292
296 297 297 297 297 297 297 299 299 299 300 299 299 301 300 300 301 301 302 302 301 300 298 297 296 294 295 293 293 293 292 291 290 289 291 291 293 291 291 292 292 294 291
295 295 295 296 296 296 297 297 298 300 300 300 301 301 302 301 299 300 303 302 300 299 297 296 295 293 293 292 292 292 291 289 290 287 287 289 289 289 289 289 290 290 291
295 295 295 295 295 296 296 297 298 300 300 300 300 301 301 300 300 300 300 300 299 297 296 295 295 294 293 291 292 291 291 290 289 289 288 288 286 286 286 286 286 287 288
295 294 295 295 295 295 296 297 297 299 299 299 300 300 299 298 297 296 295 299 298 296 295 295 294 293 292 291 290 290 289 288 288 288 288 288 287 288 288 284 284 285 284
294 293 293 293 294 295 296 296 296 296 296 297 298 298 298 297 295 294 293 292 296 296 295 292 293 293 292 291 290 291 290 287 286 286 286 287 286 287 286 283 283 284 282
290 291 290 289 292 294 295 293 289 291 293 295 297 296 295 296 296 293 290 291 289 288 287 288 289 290 290 290 291 290 289 287 287 286 286 285 287 287 287 285 282 284 283
289 290 289 290 292 294 295 292 289 290 291 290 292 293 295 295 293 292 290 289 288 286 285 285 285 286 288 289 290 290 288 288 286 285 285 285 287 287 287 283 285 284 282
289 291 291 292 293 294 295 293 291 293 290 290 288 288 291 291 291 289 287 286 287 285 285 285 284 284 285 287 289 288 287 286 285 285 286 286 287 287 284 285 285 279 278
291 292 291 292 292 294 295 295 296 296 293 291 289 289 288 288 287 286 286 286 285 285 284 284 283 283 283 284 285 285 285 286 285 285 285 284 281 276 277 281 279 278 277
291 292 291 291 291 294 295 296 297 297 295 294 292 290 289 288 287 286 286 285 286 286 285 285 285 283 283 284 285 285 285 285 284 282 281 280 278 273 272 275 278 277 278
290 289 290 290 291 293 294 296 296 296 296 294 291 289 288 287 286 286 285 287 286 287 287 287 285 285 287 286 286 287 286 285 283 281 279 277 276 275 275 276 275 275 276
Wind_Speed
4 5 7 7 9 12 12 10 10 7 7 3 3 2 2 2 3 4 6 6 6 8 8 7 6 6 5 7 3 3 5 5 8 6 3 3 5 8 8 8 7 7 6
6 9 8 8 9 11 10 10 9 7 4 3 3 2 2 1 1 3 4 5 6 6 6 7 7 8 7 5 5 4 2 2 6 7 6 3 1 2 5 6 9 8 8
12 9 11 10 10 10 8 8 7 7 5 6 3 3 3 1 2 1 1 3 4 6 7 7 8 7 7 7 8 8 8 6 5 6 2 5 5 6 2 2 6 9 7
8 8 9 9 9 7 7 8 8 8 6 7 4 4 4 4 3 1 1 0 2 2 2 3 2 3 2 4 5 7 8 10 9 3 8 2 3 7 6 1 4 7 9
10 9 8 9 8 8 8 8 8 7 6 6 6 5 5 4 2 2 3 1 0 1 3 5 5 4 2 2 2 1 4 8 9 6 6 3 2 4 7 10 8 4 8
9 8 7 8 7 6 6 6 6 4 6 6 7 8 8 6 4 3 3 4 3 4 4 4 4 5 6 5 3 3 4 5 5 6 7 8 6 8 6 8 13 12 6
10 10 9 7 7 6 4 5 6 6 7 7 7 8 8 7 8 7 5 6 4 4 5 5 4 3 3 4 5 5 5 5 7 9 9 8 6 4 5 9 9 10 6
7 9 8 5 6 7 8 8 7 7 8 8 9 7 7 6 7 7 5 6 6 5 5 6 5 4 4 4 3 2 3 4 3 7 10 8 9 10 11 10 15 8 6
8 6 7 8 7 6 7 8 8 8 7 9 8 8 7 8 8 8 7 6 5 3 4 5 5 5 5 6 5 4 4 3 2 3 5 9 11 10 10 12 14 13 8
7 7 6 6 5 6 6 7 7 8 8 5 6 7 9 9 7 6 9 9 5 6 5 5 6 6 6 6 6 4 4 5 3 3 1 1 11 12 9 11 11 9 6
6 6 6 7 8 5 5 6 7 8 6 3 3 6 6 8 9 9 7 6 6 7 7 7 6 7 6 6 5 4 4 4 4 4 2 4 2 11 10 11 10 8 6
9 8 8 4 2 2 4 5 6 6 4 4 4 4 5 6 7 8 6 6 7 6 6 7 7 7 6 6 6 5 4 5 4 3 5 5 1 5 9 9 11 8 4
7 5 5 6 5 4 5 5 3 5 4 3 5 5 6 7 8 8 6 7 6 6 6 6 8 8 8 8 7 6 5 5 4 5 7 5 4 4 3 6 9 9 7
6 6 5 5 3 3 4 4 4 4 5 5 6 7 7 8 8 8 9 9 11 11 11 11 10 10 9 9 8 7 5 4 5 4 5 9 10 5 5 4 5 8 8
8 6 5 4 3 4 4 4 5 5 5 6 7 8 7 7 7 7 9 11 10 9 8 8 8 9 10 8 10 9 8 6 5 5 6 4 6 11 6 4 5 9 9
8 7 4 3 2 2 2 4 5 6 5 6 7 9 7 7 7 8 10 10 10 10 9 9 10 10 8 14 15 11 8 7 6 4 3 2 5 5 5 9 11 15 14
7 6 5 4 3 3 2 2 3 3 4 6 6 6 7 7 5 6 9 10 11 9 10 10 9 10 10 15 18 16 9 9 8 7 7 5 3 5 6 8 8 12 21
7 6 6 6 7 5 5 3 2 4 5 7 7 5 6 6 3 3 4 4 4 8 8 9 10 9 8 14 18 17 7 6 7 9 9 9 7 6 6 7 8 6 4
8 7 7 7 7 8 5 3 3 4 5 7 8 5 4 7 6 1 3 4 5 6 7 7 8 9 8 17 18 15 8 6 7 6 6 8 7 10 10 7 9 9 3
4 5 6 6 7 8 5 4 4 5 6 8 9 4 6 5 5 4 3 1 1 5 6 7 8 11 9 17 20 16 8 6 4 3 4 7 7 9 10 7 9 10 5
2 3 3 4 6 4 3 4 6 8 8 6 3 4 5 6 3 1 1 1 1 2 1 3 3 6 8 12 20 20 10 9 7 5 3 3 10 10 9 9 5 4 7
4 6 6 5 4 3 5 7 7 8 7 5 2 4 5 2 1 1 1 3 2 2 3 4 3 2 5 12 19 20 15 13 9 8 6 6 12 10 9 5 11 12 6
3 4 4 3 3 3 6 7 8 6 1 2 4 4 4 3 0 2 3 2 1 2 2 2 3 2 2 4 15 16 15 14 7 6 9 9 10 10 6 10 13 8 4
4 3 5 5 5 6 7 8 5 4 4 3 3 2 2 2 1 2 2 2 1 0 1 2 3 3 3 5 6 6 8 12 7 10 8 6 6 6 4 6 6 4 4
5 5 5 4 5 6 6 3 4 4 3 1 2 3 3 3 3 1 1 2 2 2 2 2 3 5 5 6 10 9 7 7 7 8 6 5 4 3 2 3 3 4 4
4 4 4 5 6 6 7 6 6 6 7 7 6 5 4 2 2 2 1 1 2 6 7 5 4 2 6 14 18 15 15 18 17 5 5 4 5 5 5 5 3 2 4
Wind_Direction
130 84 75 87 92 134 133 133 138 140 127 113 119 127 157 185 202 199 203 191 224 214 206 217 207 216 216 232 230 273 225 215 177 119 118 52 183 157 159 154 144 138 115
128 96 84 74 80 110 119 126 130 140 126 104 94 90 96 319 289 217 219 222 218 219 215 221 221 212 212 192 214 211 237 281 191 176 138 113 25 128 179 162 148 142 133
134 115 94 81 82 84 90 105 109 104 99 106 109 77 64 33 1 314 297 16 327 244 224 222 223 217 208 203 199 201 200 215 194 235 176 151 170 136 63 182 163 140 144
101 103 102 86 88 90 88 93 108 124 139 145 128 148 175 207 206 243 317 342 11 37 55 107 150 155 176 193 209 205 202 204 203 194 208 98 130 161 161 189 152 135 131
126 119 116 118 130 135 141 149 145 145 154 155 170 175 193 199 160 191 246 240 150 107 132 130 122 119 95 123 134 255 197 209 203 194 171 158 132 230 158 170 160 140 137
122 126 141 140 143 150 142 142 143 174 173 179 185 190 202 198 194 197 219 230 223 224 211 186 176 169 168 158 187 175 215 199 203 202 188 193 173 182 168 153 172 153 139
138 148 153 164 169 169 172 185 182 213 207 210 211 210 210 200 201 199 200 200 220 226 216 204 209 222 216 185 190 184 194 209 197 196 187 163 174 146 152 150 164 155 136
156 169 176 138 174 191 198 203 201 228 211 213 226 214 211 209 209 199 196 219 214 220 195 205 203 205 197 208 224 213 209 217 206 218 194 176 167 171 156 156 152 145 164
185 159 151 179 179 179 188 189 199 222 229 224 221 219 212 211 211 203 208 215 201 215 205 201 204 207 206 199 194 203 195 174 192 236 215 196 167 163 154 158 162 161 159
152 161 175 184 200 202 199 199 204 211 230 213 207 218 218 217 217 204 224 221 209 177 188 201 203 204 202 202 200 195 178 187 180 188 311 298 159 150 151 158 165 177 155
167 179 197 202 198 199 214 226 227 220 217 205 202 219 227 206 212 224 231 207 187 181 189 198 201 202 200 187 192 193 176 198 188 171 176 91 292 145 156 159 167 178 166
187 191 197 183 149 265 291 277 248 227 227 202 190 214 222 212 220 232 229 183 196 195 191 194 196 201 186 173 175 182 198 205 194 184 158 122 124 124 148 168 169 176 151
209 211 106 106 74 21 340 317 256 231 255 255 226 226 221 214 225 227 192 188 183 180 188 193 201 190 179 180 185 195 209 210 194 176 195 165 155 133 131 152 174 171 147
234 144 139 127 126 79 51 15 323 291 290 278 269 264 238 225 221 208 191 193 194 192 198 202 194 188 185 184 175 183 198 184 192 196 193 193 197 170 176 171 178 165 151
126 136 135 129 81 47 12 346 304 296 310 306 290 273 263 238 226 209 202 206 194 198 197 197 203 194 185 187 183 184 188 195 202 203 194 188 189 173 192 176 181 152 143
145 143 128 103 73 31 5 350 341 325 336 323 311 298 298 269 231 221 214 202 196 192 191 202 192 195 197 190 182 174 175 192 193 204 200 131 143 143 163 221 185 174 162
148 155 172 195 225 254 216 252 288 303 315 295 292 316 302 296 295 235 196 196 196 189 203 194 187 201 203 188 180 178 182 181 193 179 167 169 167 156 143 103 151 169 168
170 194 207 226 235 232 224 208 286 286 276 271 273 274 297 296 308 187 197 245 206 194 202 204 199 202 201 186 183 182 178 178 188 185 171 163 161 179 134 131 113 86 119
200 206 220 227 233 235 230 214 253 274 280 284 279 273 305 299 275 260 202 202 187 202 215 210 207 202 205 183 171 163 163 163 165 168 160 155 155 145 138 113 121 113 56
216 232 250 241 232 248 208 207 254 268 267 277 284 300 303 300 255 210 154 195 252 223 213 209 202 205 198 183 170 166 164 157 136 125 134 147 141 146 138 131 142 140 164
213 226 255 280 264 278 161 222 255 260 262 261 251 289 296 290 241 250 26 73 360 288 212 181 168 174 172 173 176 169 174 177 171 166 139 129 150 159 147 144 141 147 154
330 360 21 3 357 153 191 240 244 254 258 260 314 319 309 36 39 151 73 77 135 112 76 97 87 101 152 171 176 170 171 170 170 165 157 151 162 154 140 138 131 127 110
32 89 77 48 341 296 245 252 246 261 313 246 25 332 333 350 43 111 94 68 135 111 125 135 123 109 92 162 165 166 152 153 138 138 144 142 150 149 145 147 144 124 115
72 49 45 28 340 305 282 254 230 232 179 176 235 273 355 242 100 96 124 115 105 141 180 157 150 146 153 145 144 145 147 141 124 136 141 142 111 107 127 131 132 128 142
54 45 28 355 329 320 337 343 298 267 252 250 175 207 198 217 186 179 143 176 140 194 220 204 166 163 183 183 163 155 148 149 137 117 114 116 118 106 113 108 122 121 136
60 32 352 329 323 329 336 337 312 264 239 222 185 180 167 176 202 143 113 360 242 206 233 233 176 179 175 168 175 162 146 142 138 121 143 142 152 162 162 156 141 116 146